Wetbulb
74.85 75.74 78.29 72.91 64.71 64.80 60.06 61.26 65.66 64.26 65.35 68.72 68.46 66.14 66.89 68.51 65.88 63.64 74.57 75.04 76.56 76.11 76.90 78.45 79.10 79.66 79.40 78.49 78.53 79.22 78.50 77.92 77.96 77.65 77.77 77.55 77.42 76.95 76.87 76.92 77.12 77.37 77.83 78.24 77.49 76.95 76.90 77.66 77.38
75.25 74.46 73.73 69.73 63.13 58.70 59.60 63.75 62.79 65.42 67.53 69.59 68.80 67.63 67.52 67.06 72.10 71.81 72.38 75.18 76.84 76.25 77.04 77.62 78.42 79.20 79.36 79.23 79.40 79.06 78.07 77.97 78.24 78.02 77.79 77.53 77.37 76.85 76.83 76.69 76.47 76.47 76.75 77.17 77.66 77.52 76.90 76.43 77.09
75.19 74.35 69.69 65.92 64.57 58.96 58.81 63.59 65.03 67.48 68.89 68.48 67.85 70.20 69.04 68.09 71.21 72.50 74.67 75.64 76.81 76.28 76.86 78.13 78.94 79.23 79.29 79.29 79.40 79.10 78.62 77.93 78.03 77.85 77.70 77.62 77.24 76.86 76.72 76.45 76.67 76.80 76.50 76.26 76.48 77.44 77.11 76.92 76.48
74.61 72.85 70.12 63.40 59.97 62.22 63.30 65.45 67.07 67.16 68.44 69.29 69.06 66.84 71.78 73.63 72.68 74.50 75.13 75.82 76.31 75.77 77.05 78.04 78.89 78.49 79.01 78.86 78.91 78.62 78.54 77.98 77.90 77.50 77.45 77.52 77.14 76.78 76.65 76.67 76.55 76.44 76.44 76.67 76.42 75.84 76.97 76.30 75.51
74.93 71.11 64.36 61.26 60.50 62.47 64.86 66.72 67.70 66.41 67.14 67.81 68.64 66.81 68.69 73.06 74.68 75.26 74.94 75.10 76.05 75.54 75.89 77.50 78.86 78.85 78.65 78.62 78.53 78.28 77.71 77.44 77.56 77.56 77.13 76.78 77.09 76.95 76.89 75.98 75.54 75.59 75.43 75.12 75.65 76.53 75.92 75.83 74.57
68.86 69.50 60.89 59.06 57.68 62.42 65.36 67.27 66.44 66.68 67.51 68.03 67.52 67.62 69.43 74.19 73.98 74.87 74.99 75.01 76.13 76.58 75.34 76.74 78.00 78.71 78.26 78.16 77.87 77.94 77.33 76.92 77.41 76.69 76.66 76.92 76.52 76.09 75.81 75.26 75.20 75.29 75.37 75.31 75.23 75.72 75.58 75.59 74.35
66.10 65.85 60.73 61.51 60.34 61.66 64.21 67.96 66.77 66.87 66.59 67.05 69.40 66.36 70.50 72.31 74.46 75.35 75.07 75.03 75.31 76.50 76.04 76.47 77.41 77.76 77.64 78.02 78.00 77.70 77.84 77.14 76.71 76.49 76.04 76.06 75.72 75.65 75.59 74.78 74.28 74.33 74.82 75.14 75.54 75.27 75.20 75.40 74.73
68.99 66.36 60.91 61.61 61.07 60.85 66.24 66.98 67.84 67.63 67.33 71.44 70.66 66.66 67.91 73.09 74.80 75.21 75.22 74.71 74.48 75.58 76.46 76.68 76.86 77.29 77.60 77.60 77.66 77.57 77.47 76.81 76.43 75.33 74.89 74.86 74.70 74.73 74.05 73.95 74.18 74.67 74.90 75.59 76.12 74.84 75.24 75.50 75.22
68.81 62.93 59.26 59.92 60.82 62.98 67.19 66.01 68.81 70.25 69.40 69.56 69.91 70.53 73.28 74.93 75.05 74.23 73.72 73.84 73.63 74.32 75.95 77.12 77.01 76.92 77.69 77.00 77.47 77.70 77.24 76.36 74.25 71.56 69.53 73.90 74.26 73.94 73.35 72.78 73.05 74.43 74.73 75.40 75.23 74.92 75.56 75.77 75.75
66.09 63.15 60.14 63.09 64.08 63.97 66.99 67.30 67.85 67.89 68.06 68.28 68.99 72.12 74.34 73.89 73.48 72.85 72.33 72.03 72.73 73.08 74.22 75.42 75.64 75.58 77.01 76.62 78.32 76.89 75.84 75.72 74.99 71.96 69.15 73.01 72.94 72.95 73.24 73.38 73.71 74.42 74.68 74.87 75.12 75.36 75.99 76.22 75.43
65.17 61.53 63.28 63.40 64.59 65.67 65.82 67.18 68.98 67.46 66.03 68.45 68.75 70.47 72.62 72.61 73.07 73.30 72.99 73.27 73.25 74.19 74.82 74.52 75.56 76.27 75.79 78.51 77.14 76.69 74.49 75.06 75.64 75.14 73.02 71.89 71.96 75.07 76.06 72.57 73.52 74.90 74.70 75.39 75.90 76.57 76.24 74.75 75.13
61.21 62.61 63.48 64.43 64.86 64.72 65.08 66.84 66.48 67.65 68.42 70.83 71.38 72.68 72.58 72.34 73.17 73.54 72.98 72.81 72.11 72.68 74.43 75.91 76.37 76.22 76.86 77.13 76.34 78.62 76.18 75.12 75.65 74.81 73.81 71.92 71.54 72.18 74.31 75.09 75.09 75.10 75.28 76.27 74.89 74.91 76.16 75.87 76.01
60.70 61.53 62.30 63.97 63.58 63.93 64.81 64.75 66.14 67.37 70.09 71.48 72.58 72.49 71.65 72.79 73.23 73.98 73.81 73.99 73.28 73.06 74.28 75.13 76.31 76.64 76.78 76.53 78.30 76.81 75.26 76.22 76.92 76.99 76.16 75.89 74.50 71.86 70.60 74.42 74.48 76.81 75.86 75.13 76.37 76.12 75.68 75.79 75.85
61.12 61.44 61.84 62.84 63.89 63.92 63.30 65.33 66.61 68.18 70.63 70.82 71.71 72.10 70.77 71.93 73.24 73.57 73.60 73.45 73.72 73.61 74.39 75.30 76.36 76.53 76.59 76.30 77.28 78.75 78.00 75.79 76.38 75.87 76.53 75.58 72.10 70.93 70.88 70.92 74.19 75.30 76.88 76.53 76.88 76.33 75.93 76.02 75.72
60.81 59.55 61.26 61.83 63.45 62.89 66.18 63.73 64.83 68.57 70.64 70.34 71.14 70.98 71.43 72.28 72.57 73.28 73.83 72.56 74.02 74.89 75.22 75.48 75.93 76.62 76.28 76.60 77.35 77.09 76.79 75.23 76.56 76.84 75.82 73.54 72.85 71.05 70.34 70.33 72.85 75.14 77.03 76.82 76.91 76.81 76.27 74.16 75.20
59.54 60.42 57.15 60.54 64.02 63.37 63.98 61.44 65.64 69.20 69.60 69.00 69.86 69.97 69.01 71.66 72.39 73.07 71.40 72.11 74.13 74.06 74.85 75.92 75.46 75.85 76.07 75.98 76.62 78.05 77.90 74.50 76.14 77.37 77.44 74.84 72.69 74.00 71.68 71.41 72.48 75.81 76.24 76.21 78.49 75.96 75.65 74.33 74.91
58.36 55.14 54.87 56.83 63.97 62.80 62.66 62.53 65.60 68.49 68.74 67.74 67.32 68.39 70.17 71.33 69.58 71.65 72.19 73.88 74.63 75.27 74.88 75.60 76.04 75.71 76.18 76.47 77.47 77.53 76.13 75.19 75.38 77.73 77.04 76.15 73.28 72.23 70.56 72.59 72.58 76.13 75.43 76.30 75.02 76.05 77.11 74.42 74.62
54.06 53.57 54.69 55.36 60.34 63.28 62.70 63.05 65.33 67.16 67.50 67.52 67.89 67.81 68.00 67.44 68.80 70.13 71.71 73.92 74.92 75.57 75.92 75.61 76.20 76.36 76.46 77.49 76.12 75.88 77.09 74.85 77.23 77.67 76.23 75.28 73.06 72.27 71.74 71.49 73.54 74.78 77.48 77.14 75.43 76.41 76.02 74.59 74.76
55.64 54.30 54.15 57.52 60.73 60.40 60.04 60.83 61.98 65.96 66.22 65.96 66.69 67.60 67.33 65.39 67.71 70.81 72.16 73.54 74.37 75.28 75.39 75.77 75.67 76.51 76.14 76.24 74.29 73.96 74.25 76.59 75.88 77.42 76.42 74.79 72.41 73.11 72.73 73.71 71.77 74.30 76.65 75.48 75.50 76.19 74.99 74.75 76.86
55.55 54.08 54.84 58.29 60.39 60.90 60.95 61.16 63.88 65.09 65.22 66.11 66.10 66.93 67.23 64.90 66.60 69.75 71.94 72.78 73.52 73.84 75.32 75.64 75.99 76.31 76.84 78.07 75.47 75.87 76.53 76.71 77.79 74.61 74.51 73.64 71.74 72.69 73.59 75.79 71.90 74.23 75.50 75.44 76.09 76.47 74.23 74.61 76.63
55.95 54.65 54.62 54.62 59.38 61.20 60.91 59.68 62.30 64.57 65.83 65.68 67.23 68.02 68.43 68.49 69.08 70.02 71.50 72.50 73.56 74.16 74.89 75.20 76.13 76.87 77.32 77.18 76.65 76.32 77.49 77.58 76.46 74.90 73.87 73.83 74.40 74.65 74.07 75.33 75.34 74.48 75.31 73.82 75.79 76.84 75.22 72.89 75.37
53.95 56.26 55.78 54.80 56.50 53.88 59.14 53.36 59.50 62.14 62.84 64.70 65.81 67.24 68.35 69.51 69.72 70.59 71.22 71.96 72.99 74.07 75.15 75.75 76.69 75.98 76.29 77.15 75.70 73.39 74.21 74.51 76.47 76.35 75.25 74.46 74.07 74.32 75.10 75.54 75.56 75.29 75.70 76.07 75.67 76.37 75.70 76.87 75.29
54.28 57.18 56.79 56.44 56.50 55.95 56.26 54.36 58.96 61.58 61.08 63.02 65.51 66.48 67.60 68.36 69.42 70.24 70.88 72.33 73.48 74.71 75.05 75.90 76.98 77.23 77.54 76.93 76.54 76.49 75.34 76.95 77.20 77.12 76.06 76.31 76.40 75.90 75.64 76.18 75.81 75.61 75.44 76.09 76.37 76.63 75.92 75.65 74.66
56.95 55.50 57.64 57.86 56.17 51.09 55.85 54.52 56.57 58.46 61.72 63.43 65.31 66.24 66.92 67.54 69.08 70.63 71.72 72.91 73.64 74.84 75.13 75.62 76.73 77.42 77.80 77.70 77.54 77.04 76.67 75.59 76.77 76.52 77.52 76.45 74.54 78.01 76.21 75.78 75.93 76.44 75.85 76.06 76.24 77.33 76.87 77.29 77.44
55.75 55.11 50.73 49.52 49.12 49.38 57.17 55.20 57.93 61.76 64.23 64.62 64.20 65.51 66.58 68.27 69.34 70.27 71.23 71.76 72.66 73.37 74.48 75.43 76.29 76.79 77.44 77.25 77.07 77.16 77.07 77.01 76.48 76.22 75.39 76.63 77.33 76.25 74.99 75.98 75.56 75.46 76.12 76.32 76.64 77.45 76.58 76.47 76.09
55.14 55.17 50.45 45.90 47.94 51.12 56.78 52.88 57.88 63.53 65.72 66.60 66.40 66.30 67.30 68.34 69.59 69.93 71.30 72.18 72.72 72.63 73.42 73.89 74.91 76.31 77.08 77.21 77.36 77.80 77.65 76.49 76.42 76.55 75.69 75.27 74.81 74.42 75.62 75.91 76.15 76.13 76.14 76.23 76.65 75.69 75.79 75.92 75.73
54.72 52.73 56.91 52.20 53.44 51.12 54.78 57.12 61.34 63.45 63.56 65.89 66.09 65.49 66.29 67.68 68.94 70.16 71.25 71.82 72.22 72.73 73.60 73.47 72.70 75.61 76.56 77.09 77.54 77.62 77.68 76.42 75.76 76.46 76.87 75.66 76.31 75.23 76.09 76.02 75.85 75.96 75.95 76.08 76.36 75.82 75.56 76.03 75.99
56.43 58.00 52.29 53.13 47.39 47.09 52.04 53.65 56.04 60.56 61.61 65.11 65.16 65.41 66.67 68.27 69.26 70.43 71.29 72.24 73.61 74.21 74.05 74.56 74.10 74.79 75.30 76.45 77.25 76.91 76.63 75.75 75.08 76.99 77.04 76.91 76.33 76.17 76.27 76.21 76.00 75.98 75.73 75.80 75.83 74.98 75.76 75.85 75.07
54.38 53.88 54.91 54.89 54.00 48.77 48.58 52.18 60.79 62.38 63.70 65.02 66.28 66.91 68.18 69.52 71.07 72.40 73.50 74.47 75.10 75.16 74.87 74.94 75.47 75.61 77.06 77.25 77.65 77.40 76.61 75.86 76.07 75.14 76.59 76.64 76.66 76.20 76.04 76.62 76.47 75.82 75.28 75.54 75.31 75.69 75.08 74.61 75.42
57.17 55.56 55.21 51.81 51.90 53.47 53.09 54.39 63.79 64.27 65.39 67.16 67.15 68.99 70.32 71.61 72.28 72.94 73.45 74.41 75.17 75.56 75.56 74.63 73.16 71.70 71.55 72.63 73.44 74.40 76.23 75.66 74.02 74.26 73.95 76.42 76.83 77.10 76.58 76.55 76.68 76.39 75.76 75.73 75.28 74.80 74.50 74.63 74.55
MSLP
1009.45 1008.90 1008.74 1008.18 1007.11 1005.69 1006.02 1006.95 1007.37 1006.76 1006.45 1006.91 1007.00 1007.20 1007.62 1008.30 1008.70 1009.86 1010.68 1011.47 1012.05 1012.74 1013.87 1014.69 1015.34 1015.61 1015.87 1016.23 1016.56 1016.90 1017.15 1017.44 1017.71 1017.99 1018.10 1018.35 1018.58 1018.69 1018.83 1019.03 1019.16 1019.16 1019.20 1019.30 1019.48 1019.55 1019.54 1019.56 1019.74
1008.59 1008.85 1008.35 1007.21 1005.97 1004.83 1006.23 1006.85 1006.71 1007.03 1007.08 1007.07 1007.17 1007.33 1007.53 1008.75 1009.75 1010.49 1011.12 1011.97 1012.20 1012.81 1013.62 1014.43 1015.48 1015.75 1016.12 1016.41 1016.81 1017.11 1017.49 1017.59 1017.88 1018.20 1018.38 1018.59 1018.82 1018.96 1019.07 1019.25 1019.37 1019.45 1019.52 1019.56 1019.64 1019.71 1019.76 1019.85 1019.95
1008.87 1008.81 1007.39 1006.42 1005.85 1005.93 1006.02 1006.66 1006.71 1007.05 1007.14 1006.74 1006.77 1007.37 1007.96 1009.39 1010.73 1010.64 1011.14 1012.09 1012.23 1013.07 1013.51 1014.77 1015.65 1015.89 1016.20 1016.59 1016.95 1017.27 1017.53 1017.77 1018.09 1018.28 1018.52 1018.71 1018.96 1019.14 1019.29 1019.45 1019.56 1019.65 1019.75 1019.82 1019.86 1019.87 1019.92 1019.93 1019.95
1008.28 1007.93 1007.25 1005.87 1006.04 1006.82 1006.45 1006.65 1006.98 1006.81 1006.87 1006.83 1007.08 1007.31 1009.17 1010.27 1010.72 1010.81 1011.86 1012.19 1012.51 1013.30 1013.62 1015.65 1015.91 1016.13 1016.36 1016.74 1017.03 1017.34 1017.54 1017.96 1018.25 1018.33 1018.59 1018.85 1019.04 1019.27 1019.53 1019.72 1019.85 1019.85 1019.96 1020.00 1020.07 1020.08 1020.10 1020.12 1019.96
1007.89 1007.06 1006.05 1005.85 1006.60 1006.96 1007.15 1006.98 1006.88 1006.76 1006.69 1006.83 1007.21 1007.79 1009.17 1010.75 1010.90 1011.44 1012.03 1012.39 1012.79 1013.91 1014.26 1015.51 1016.08 1016.30 1016.62 1016.82 1017.23 1017.61 1017.96 1018.19 1018.40 1018.66 1018.91 1019.04 1019.22 1019.51 1019.66 1019.94 1020.00 1020.04 1020.05 1020.11 1020.23 1020.20 1020.03 1020.31 1020.42
1006.33 1006.36 1005.38 1005.90 1006.70 1007.06 1007.21 1007.20 1007.31 1007.01 1007.25 1007.33 1007.42 1008.11 1009.83 1010.88 1011.11 1011.53 1012.11 1012.46 1012.86 1013.52 1014.65 1015.31 1016.28 1016.53 1016.77 1017.24 1017.48 1017.77 1018.15 1018.41 1018.68 1018.91 1019.18 1019.27 1019.58 1019.71 1019.87 1020.00 1020.09 1020.04 1020.03 1020.16 1020.25 1020.24 1020.22 1020.33 1020.55
1006.07 1005.42 1005.34 1005.38 1006.20 1006.38 1006.36 1006.64 1006.68 1006.43 1007.07 1006.98 1007.53 1007.90 1010.20 1010.74 1011.35 1011.67 1012.25 1012.68 1012.97 1013.25 1014.80 1015.45 1015.98 1016.58 1016.97 1017.35 1017.69 1017.97 1018.29 1018.73 1019.02 1019.29 1019.45 1019.49 1019.67 1019.88 1019.92 1020.04 1020.13 1020.06 1020.09 1020.07 1020.07 1020.08 1020.25 1020.37 1020.53
1006.27 1005.83 1005.28 1005.23 1005.68 1005.53 1006.02 1006.36 1006.64 1006.57 1006.47 1007.36 1007.47 1007.81 1009.71 1010.71 1011.46 1011.82 1012.30 1012.83 1013.21 1013.59 1014.78 1015.42 1015.91 1016.46 1016.93 1017.29 1017.92 1018.05 1018.43 1018.83 1019.27 1019.54 1019.96 1019.98 1019.90 1019.92 1019.99 1020.01 1020.12 1020.13 1020.15 1020.00 1019.93 1020.05 1020.15 1020.34 1020.47
1006.70 1005.19 1004.94 1005.06 1004.91 1005.49 1005.97 1006.15 1006.43 1006.50 1006.66 1007.25 1007.96 1008.25 1008.93 1010.99 1011.66 1011.87 1012.40 1012.91 1013.53 1014.06 1014.39 1015.04 1015.61 1016.30 1016.86 1017.07 1017.66 1018.16 1018.51 1018.81 1019.27 1019.87 1020.55 1020.52 1020.38 1020.20 1020.14 1020.17 1020.20 1020.18 1020.09 1020.04 1020.03 1019.94 1020.16 1020.25 1020.36
1005.93 1004.99 1005.37 1005.54 1005.22 1004.96 1005.67 1005.77 1005.84 1006.24 1006.38 1007.24 1008.43 1009.24 1010.06 1011.48 1011.82 1011.86 1012.33 1012.84 1013.32 1013.88 1014.49 1014.70 1015.27 1015.72 1016.28 1016.61 1017.58 1017.90 1018.31 1019.02 1019.39 1019.88 1020.43 1020.68 1020.43 1020.15 1020.16 1020.04 1020.08 1020.08 1020.02 1020.00 1019.92 1019.92 1020.02 1019.95 1019.05
1005.71 1005.30 1005.61 1005.30 1005.33 1005.31 1005.24 1005.64 1005.83 1005.91 1006.09 1006.43 1007.61 1009.52 1010.70 1011.57 1011.86 1011.73 1012.26 1012.54 1012.78 1013.47 1014.39 1015.00 1015.30 1015.73 1015.98 1016.70 1017.28 1017.77 1018.57 1018.78 1019.29 1019.61 1020.13 1020.33 1020.30 1020.49 1020.13 1020.13 1019.73 1019.01 1019.49 1018.73 1018.82 1018.95 1018.85 1018.58 1019.29
1005.34 1005.48 1005.45 1005.25 1005.32 1005.38 1005.37 1005.64 1005.87 1006.12 1006.54 1007.15 1007.39 1009.10 1010.61 1011.34 1011.32 1011.16 1011.75 1012.37 1012.90 1013.44 1014.14 1014.77 1015.00 1015.60 1015.70 1016.48 1016.65 1017.57 1018.29 1018.02 1018.53 1018.55 1019.66 1020.05 1020.48 1020.43 1020.10 1019.78 1018.98 1019.64 1018.60 1018.63 1018.84 1018.53 1018.60 1018.77 1018.78
1005.22 1005.21 1005.19 1005.24 1005.25 1005.16 1005.32 1006.00 1006.33 1007.13 1007.62 1007.69 1008.20 1009.30 1010.53 1010.89 1011.26 1011.27 1011.45 1012.19 1012.90 1013.38 1013.97 1014.55 1015.00 1015.71 1015.91 1016.15 1016.54 1017.18 1017.65 1018.05 1018.44 1018.66 1019.08 1019.49 1019.58 1020.21 1020.49 1019.64 1019.10 1019.53 1018.83 1018.40 1018.49 1018.37 1018.22 1018.28 1018.52
1005.27 1005.07 1004.93 1004.96 1004.99 1005.09 1005.49 1006.55 1006.84 1007.92 1008.02 1007.94 1008.75 1009.44 1010.79 1010.42 1010.93 1011.63 1011.81 1012.20 1012.80 1013.50 1013.92 1015.12 1015.28 1015.67 1015.89 1016.07 1016.93 1017.12 1017.58 1017.02 1017.62 1017.85 1018.78 1019.19 1019.82 1020.04 1020.44 1020.19 1019.20 1018.51 1018.32 1018.37 1018.45 1018.15 1017.93 1017.80 1017.95
1005.21 1004.79 1004.65 1004.83 1004.98 1005.14 1005.91 1006.57 1007.84 1008.64 1008.50 1008.69 1009.12 1010.61 1011.07 1011.45 1011.79 1011.92 1012.60 1012.96 1012.89 1013.61 1013.99 1014.87 1015.44 1015.31 1016.00 1016.38 1016.92 1016.95 1017.39 1016.82 1017.35 1018.00 1018.46 1019.31 1019.53 1019.87 1020.14 1020.25 1019.76 1018.31 1018.51 1018.53 1018.01 1018.16 1018.02 1018.51 1017.98
1004.69 1004.58 1003.87 1004.93 1005.11 1005.72 1006.02 1006.79 1008.34 1008.80 1008.76 1009.07 1009.76 1010.84 1011.39 1011.57 1012.04 1012.36 1013.09 1013.54 1013.53 1013.84 1014.32 1014.71 1015.23 1015.14 1015.75 1016.47 1016.48 1016.97 1017.34 1017.55 1017.22 1018.13 1018.29 1018.91 1019.30 1019.51 1019.95 1019.70 1019.56 1018.63 1018.39 1017.99 1018.09 1017.75 1017.60 1018.26 1018.02
1004.22 1003.67 1004.42 1004.71 1005.38 1005.45 1005.71 1006.98 1008.65 1008.98 1008.89 1009.53 1010.10 1010.44 1010.73 1011.71 1012.76 1012.79 1013.15 1013.25 1013.30 1013.46 1014.19 1014.56 1014.98 1015.05 1015.30 1015.83 1016.57 1016.84 1016.87 1017.13 1017.07 1017.88 1017.94 1018.36 1019.02 1019.48 1019.78 1019.19 1019.31 1018.66 1018.12 1018.00 1018.27 1017.51 1017.89 1018.25 1017.47
1004.14 1004.14 1004.49 1004.70 1005.51 1005.44 1005.93 1007.34 1008.42 1008.86 1009.01 1009.32 1009.75 1010.05 1011.09 1012.20 1012.82 1013.43 1013.51 1013.17 1013.09 1013.24 1013.91 1014.46 1014.80 1015.20 1015.53 1016.05 1016.47 1016.64 1016.74 1016.52 1017.10 1017.33 1018.00 1018.09 1018.84 1019.12 1019.46 1019.46 1019.05 1018.66 1018.24 1018.32 1018.24 1018.03 1017.76 1018.25 1017.78
1005.02 1004.80 1004.51 1004.92 1005.72 1005.71 1006.32 1007.21 1008.13 1008.62 1008.92 1009.14 1009.49 1010.22 1011.43 1012.45 1012.66 1013.02 1012.71 1012.63 1012.72 1013.14 1013.76 1014.23 1014.67 1015.20 1015.59 1015.90 1016.14 1016.16 1016.38 1016.62 1016.71 1016.98 1017.23 1018.23 1018.76 1018.69 1018.98 1018.41 1019.13 1018.57 1018.37 1018.38 1018.31 1018.13 1017.94 1017.57 1017.35
1004.93 1004.62 1004.20 1005.03 1005.65 1005.46 1006.18 1006.99 1007.71 1008.15 1008.54 1008.70 1009.38 1010.17 1011.19 1012.26 1012.68 1012.24 1012.20 1012.31 1012.53 1013.06 1013.45 1014.00 1014.67 1015.10 1015.34 1015.63 1015.93 1016.16 1016.26 1016.00 1016.08 1016.90 1017.35 1017.87 1018.19 1018.39 1018.49 1018.35 1018.78 1018.04 1017.96 1018.24 1018.06 1018.05 1017.18 1016.94 1017.07
1004.35 1004.01 1004.10 1004.43 1005.40 1005.52 1005.78 1006.18 1007.00 1007.91 1008.37 1008.81 1009.16 1009.56 1010.13 1010.48 1010.70 1011.31 1011.65 1012.02 1012.51 1012.95 1013.47 1013.96 1014.50 1014.84 1015.20 1015.64 1015.64 1016.01 1016.32 1016.03 1016.07 1016.46 1016.64 1017.16 1017.56 1017.70 1018.07 1017.93 1017.81 1017.86 1017.71 1017.38 1017.54 1017.71 1017.57 1017.39 1016.89
1003.87 1004.35 1004.29 1004.24 1004.38 1003.73 1005.13 1004.33 1006.13 1007.02 1007.52 1008.23 1008.60 1009.05 1009.46 1009.91 1010.10 1010.53 1011.21 1011.63 1011.84 1012.37 1012.97 1013.55 1014.20 1014.56 1014.99 1015.27 1015.47 1015.83 1015.85 1015.78 1016.07 1016.26 1016.48 1016.57 1016.66 1017.06 1017.15 1017.49 1017.42 1017.44 1016.90 1016.87 1017.11 1017.16 1017.23 1017.44 1017.15
1003.85 1004.46 1003.90 1003.72 1003.61 1003.77 1004.17 1004.12 1005.00 1006.25 1006.47 1007.27 1007.75 1008.14 1008.61 1009.19 1009.69 1010.15 1010.41 1010.83 1011.23 1011.92 1012.24 1012.73 1013.52 1013.82 1014.17 1014.84 1015.27 1015.40 1015.42 1015.56 1015.81 1016.00 1015.96 1015.98 1015.80 1016.25 1016.19 1016.52 1016.76 1016.88 1016.93 1016.91 1017.04 1017.14 1017.32 1016.84 1016.78
1004.24 1004.20 1003.72 1003.43 1002.87 1002.52 1003.33 1003.75 1003.54 1004.48 1005.64 1006.44 1007.05 1007.60 1008.16 1008.70 1009.45 1009.93 1010.52 1010.97 1011.22 1011.61 1011.93 1012.31 1013.02 1013.45 1013.84 1014.12 1014.30 1014.67 1014.74 1014.97 1015.21 1015.44 1015.21 1015.07 1014.94 1015.61 1015.68 1015.79 1016.09 1016.31 1016.47 1016.50 1016.63 1016.87 1017.01 1017.07 1017.05
1003.89 1003.04 1001.97 1001.73 1001.73 1002.30 1003.57 1003.73 1003.54 1004.72 1005.68 1005.83 1006.35 1007.08 1007.92 1008.66 1009.16 1009.69 1010.21 1010.69 1010.95 1011.32 1011.56 1011.85 1012.43 1012.89 1013.33 1013.58 1013.70 1013.95 1014.06 1014.34 1014.38 1014.52 1014.67 1014.89 1014.83 1014.98 1015.14 1015.78 1016.05 1016.11 1016.31 1016.21 1016.41 1016.70 1016.72 1016.89 1016.99
1002.67 1001.96 1001.32 1000.93 1001.18 1002.19 1003.42 1002.99 1003.61 1004.67 1005.74 1006.21 1006.18 1006.68 1007.43 1008.12 1008.52 1009.07 1009.68 1010.32 1010.86 1011.13 1011.33 1011.58 1012.00 1012.59 1012.86 1013.15 1013.28 1013.56 1013.85 1013.68 1013.63 1013.96 1014.02 1014.02 1014.04 1014.29 1014.85 1015.27 1015.58 1015.84 1015.86 1016.24 1016.24 1016.51 1016.48 1016.36 1016.54
1002.24 1002.11 1001.02 1000.63 1001.37 1001.46 1001.80 1003.29 1004.34 1004.95 1005.57 1006.01 1006.04 1006.26 1006.83 1007.42 1008.08 1008.79 1009.49 1010.01 1010.61 1010.88 1011.21 1011.63 1012.24 1012.37 1012.44 1012.41 1012.83 1013.15 1013.45 1013.94 1013.80 1013.98 1014.04 1013.87 1014.18 1014.22 1014.71 1014.96 1015.10 1015.30 1015.44 1015.69 1015.91 1016.12 1015.97 1016.12 1016.12
1002.37 1001.25 1001.26 1000.86 1000.78 1000.62 1001.26 1001.94 1002.00 1004.07 1004.92 1005.57 1005.75 1006.07 1006.66 1007.27 1008.10 1008.70 1009.28 1009.76 1010.02 1010.29 1010.70 1011.36 1012.19 1011.90 1011.91 1012.08 1012.41 1012.77 1013.23 1013.74 1013.94 1013.89 1013.83 1013.72 1013.90 1014.20 1014.40 1014.72 1014.90 1015.02 1015.17 1015.34 1015.58 1015.36 1015.47 1015.76 1015.68
1001.85 1001.38 1001.18 1001.09 1000.19 1000.57 1000.48 1000.61 1001.43 1003.00 1004.17 1005.19 1005.83 1006.08 1006.96 1007.71 1008.31 1009.08 1009.66 1010.06 1010.21 1010.42 1010.91 1011.44 1011.83 1012.01 1011.88 1012.05 1012.28 1012.68 1013.31 1013.65 1013.83 1013.94 1013.85 1013.92 1013.86 1014.06 1014.20 1014.35 1014.46 1014.57 1014.76 1014.97 1015.12 1015.05 1014.90 1014.97 1015.15
1001.18 1000.65 1000.57 1000.19 1000.32 1000.60 1001.02 1001.12 1002.44 1002.89 1004.00 1005.11 1006.05 1006.86 1007.67 1008.55 1009.18 1009.50 1009.99 1010.42 1010.75 1010.86 1011.33 1011.93 1012.28 1012.35 1012.37 1012.51 1012.60 1012.72 1013.05 1013.63 1013.91 1013.75 1013.70 1013.48 1013.44 1013.54 1013.75 1013.83 1013.96 1014.06 1014.08 1014.28 1014.58 1014.68 1014.45 1014.63 1014.77
Wind_Speed
10 4 2 5 6 5 6 6 2 7 5 5 6 0 8 7 7 5 13 11 19 19 17 15 14 15 16 17 17 15 17 16 16 15 14 13 12 11 11 11 10 11 10 11 12 12 12 12 14
2 1 4 3 5 6 6 6 7 6 4 4 6 5 2 7 10 11 14 16 20 19 18 18 14 16 16 17 16 15 16 16 16 15 14 13 12 11 10 10 10 10 9 10 10 12 12 11 12
2 3 4 4 1 6 7 6 5 6 5 3 3 3 4 5 6 15 16 20 19 18 17 18 15 16 16 16 16 15 15 16 15 15 14 12 11 10 10 9 9 8 8 9 8 9 10 11 11
4 5 5 1 10 5 4 4 5 6 4 3 3 6 9 7 12 8 20 20 18 16 17 18 16 17 16 16 16 16 16 16 15 14 13 12 11 10 8 7 7 6 6 6 7 6 9 10 10
4 2 3 5 6 5 3 5 4 2 4 4 0 6 7 9 8 19 20 17 18 14 15 17 15 16 15 16 15 14 14 14 14 12 11 10 10 8 8 5 5 4 4 4 3 5 7 9 9
5 4 6 7 3 2 5 5 3 5 4 3 3 7 9 11 17 18 18 16 17 18 14 17 15 14 15 14 15 14 13 13 11 10 8 8 7 6 6 4 2 2 2 2 3 4 6 8 9
5 3 7 10 8 3 3 6 8 6 5 3 3 6 8 13 15 16 17 15 15 17 12 14 15 15 15 14 14 13 12 11 9 6 5 4 5 4 4 3 1 1 3 3 5 5 5 8 9
4 4 5 5 5 4 6 7 2 6 5 5 2 4 10 13 16 16 16 15 14 14 15 12 12 13 11 13 12 12 12 10 8 11 12 4 1 3 1 0 3 4 5 6 7 4 4 6 8
3 3 5 8 4 5 5 9 4 2 6 3 4 5 12 19 17 17 15 15 13 11 14 16 14 12 11 10 12 12 12 12 14 14 2 11 3 3 3 4 5 6 7 7 5 3 4 6 7
4 2 6 5 4 5 8 8 8 6 7 7 9 10 19 19 17 18 17 15 16 16 13 12 12 13 13 9 10 6 8 7 6 8 11 8 1 4 6 5 5 7 7 7 4 3 6 9 5
0 4 4 2 3 3 3 9 7 9 5 5 9 15 19 20 18 18 18 18 18 16 13 11 12 11 12 9 8 6 3 7 7 12 8 4 3 5 3 3 6 4 9 7 7 8 6 3 4
4 3 4 5 3 1 4 2 4 7 5 8 6 16 18 19 18 17 17 15 14 14 15 15 13 11 11 10 9 8 6 7 7 9 9 5 3 4 4 4 3 2 5 3 3 4 4 6 5
4 4 5 5 8 7 3 2 4 7 8 4 10 15 17 16 15 13 13 12 12 14 14 12 12 10 9 7 5 8 8 6 7 7 9 8 8 3 5 4 6 1 5 4 3 4 4 4 6
6 8 7 3 5 1 3 5 3 9 3 7 11 14 14 18 17 12 14 14 13 12 13 11 11 11 10 9 8 6 5 9 7 7 6 6 4 3 3 5 7 4 2 4 5 4 5 4 4
5 6 2 4 6 3 9 7 7 5 5 10 12 11 10 11 10 12 11 10 12 10 13 13 13 13 11 10 7 6 5 6 1 1 6 6 4 4 4 5 6 6 2 6 4 4 4 3 6
5 5 6 8 10 3 7 8 5 3 7 9 10 9 10 12 13 9 11 4 9 12 11 12 11 12 12 9 9 6 5 3 3 4 4 9 6 6 4 5 6 5 4 4 3 4 4 2 6
5 2 3 6 9 1 6 8 4 2 5 8 7 7 10 11 7 6 4 10 9 11 12 12 11 12 10 10 6 7 7 7 4 2 3 7 9 7 6 5 8 5 5 4 2 3 2 3 6
4 4 3 6 6 5 9 8 4 4 4 5 6 6 5 5 8 9 12 6 8 9 9 11 9 10 8 6 6 6 5 6 4 5 4 4 5 7 6 5 8 8 4 3 5 4 4 2 5
7 7 6 5 3 2 6 7 4 5 5 4 1 3 9 10 2 9 10 6 7 9 10 10 10 9 8 7 5 5 6 5 6 5 6 5 4 7 7 6 7 10 5 4 4 3 5 7 2
8 9 4 6 1 2 4 8 7 5 2 1 7 10 14 13 9 11 10 7 8 9 9 9 9 11 9 6 6 5 4 7 4 4 5 9 8 9 7 9 5 12 5 5 5 4 4 4 2
11 8 7 6 6 4 5 8 8 8 5 4 6 10 12 14 12 12 10 7 8 8 8 9 10 9 9 9 5 5 6 5 3 4 5 6 12 12 11 11 8 7 9 8 6 5 5 3 2
12 5 7 5 9 2 6 3 5 7 5 6 10 11 12 10 9 11 9 9 10 9 9 9 9 9 10 9 7 5 5 5 3 2 3 7 9 11 12 13 11 12 8 7 6 6 6 2 5
4 4 6 5 7 7 8 9 10 5 8 10 10 12 13 12 14 11 8 7 8 8 9 9 9 10 9 11 9 7 8 5 4 5 7 7 8 11 13 11 11 10 9 8 7 5 6 4 5
7 8 5 6 7 10 8 8 10 7 7 10 12 12 12 13 11 8 6 7 7 8 8 9 10 9 10 11 12 12 10 7 5 6 6 4 5 7 9 8 8 10 10 9 7 8 7 7 3
9 12 9 10 7 1 5 7 10 11 8 9 13 15 15 14 13 11 10 8 6 6 7 7 9 9 10 12 11 10 9 6 7 6 5 5 3 4 7 9 9 9 10 9 8 7 7 6 5
14 16 7 5 3 1 5 3 9 10 10 8 8 16 16 16 14 12 11 9 7 6 6 6 6 7 9 9 10 9 8 6 5 6 5 5 4 5 4 7 9 10 10 11 9 8 7 8 6
9 12 9 6 7 8 6 5 8 8 9 10 14 17 17 15 14 12 11 10 8 8 7 5 4 5 6 9 9 8 8 7 5 4 5 5 5 5 6 7 8 9 10 11 10 9 9 7 8
11 3 10 10 6 8 6 3 5 16 15 14 15 17 16 15 12 10 9 8 7 7 7 7 7 6 4 5 6 5 4 6 7 6 7 5 5 7 6 8 9 10 11 12 12 11 11 10 9
9 10 10 9 8 4 4 7 5 17 18 18 15 14 15 14 13 9 7 6 6 7 7 7 6 4 0 4 4 3 3 4 5 6 7 6 7 7 8 9 9 10 11 12 13 13 12 12 11
10 13 16 12 12 7 9 4 3 13 17 17 15 12 11 11 11 12 11 10 10 11 12 12 11 9 7 6 5 6 5 2 2 6 8 6 6 7 9 10 11 11 11 11 13 14 13 14 15
Wind_Direction
199 213 244 238 236 220 107 90 90 103 121 66 120 14 28 23 359 54 134 138 147 142 140 146 138 142 143 142 141 145 145 143 144 143 139 132 123 116 110 104 99 98 95 105 104 105 105 104 113
154 242 229 283 251 151 102 116 103 65 55 137 153 191 112 85 55 128 133 150 152 145 150 140 136 137 140 143 143 146 148 147 147 148 143 139 129 122 117 112 106 101 97 95 94 108 108 105 101
227 268 268 277 158 94 119 132 84 110 126 64 106 48 32 70 72 143 124 153 151 148 148 128 140 138 138 139 144 148 150 152 153 153 150 142 134 132 128 124 117 108 104 96 97 103 107 109 110
245 188 206 150 89 94 66 105 129 132 133 48 74 84 105 27 154 141 144 154 150 151 143 134 141 140 139 142 146 152 154 153 153 157 153 147 141 141 134 128 120 116 110 108 106 111 116 125 133
237 247 124 76 87 98 82 85 143 125 62 78 134 96 74 81 127 136 146 156 143 165 133 152 147 144 145 147 146 146 150 153 152 150 150 150 142 143 140 140 139 136 133 128 131 146 139 141 151
211 268 128 100 105 170 169 139 160 214 187 99 164 106 77 112 138 145 150 155 154 150 159 146 150 152 152 155 151 150 154 155 152 154 157 149 147 145 154 157 160 167 189 183 182 198 162 169 172
327 291 74 103 137 190 188 164 221 194 214 171 144 125 108 141 141 149 154 152 162 150 151 160 162 160 160 165 163 159 159 159 155 148 164 153 164 154 130 102 50 338 283 248 233 223 183 179 189
299 292 123 94 146 120 194 191 301 228 125 95 217 140 158 151 154 154 155 152 161 159 151 161 163 166 163 162 171 162 163 158 144 75 2 313 211 135 127 172 96 330 312 280 257 218 188 188 200
303 216 94 87 89 100 165 192 185 199 145 168 95 64 119 150 158 158 160 156 158 171 169 163 176 166 170 171 166 174 173 152 125 124 190 298 347 343 38 341 335 302 297 296 272 227 224 213 205
283 328 47 357 348 80 168 211 175 191 188 159 125 101 129 149 161 165 167 172 170 170 182 168 178 180 172 176 168 192 147 148 148 156 175 225 303 338 300 309 305 279 267 272 255 256 250 225 250
197 15 346 323 329 302 176 206 209 228 199 204 185 158 148 157 173 173 175 182 176 171 172 171 184 185 179 143 181 184 140 172 179 182 174 176 28 278 259 290 276 261 187 250 197 191 220 297 229
274 64 285 339 19 271 233 301 211 241 67 349 164 167 157 169 180 176 177 180 173 175 175 181 178 185 186 162 190 164 171 198 186 198 185 158 177 248 261 256 301 270 247 322 241 263 235 237 219
271 345 302 295 305 275 276 34 65 34 339 257 133 156 163 174 174 175 165 168 176 177 182 190 182 183 195 204 177 183 197 185 208 173 188 180 196 171 305 304 291 161 262 263 283 257 252 237 237
332 307 309 355 31 81 169 71 235 28 12 134 153 151 166 178 172 170 173 169 176 184 174 189 197 191 198 207 199 192 191 199 150 199 167 181 142 149 239 274 289 219 264 305 280 269 276 249 274
292 280 191 44 348 70 141 91 48 48 104 130 128 152 163 184 160 188 181 173 178 183 175 179 206 197 200 210 207 218 200 244 74 273 172 148 153 169 178 254 269 288 338 282 250 245 236 273 280
273 236 203 69 358 91 230 89 74 85 126 129 126 135 172 199 167 202 144 198 173 176 195 176 191 201 195 204 212 216 204 273 206 202 215 154 203 185 184 269 264 276 279 297 274 265 261 171 276
231 84 13 125 35 154 230 107 102 135 144 143 156 168 186 181 198 185 187 192 173 173 181 185 190 200 188 201 209 221 227 214 248 255 203 174 188 181 223 245 249 262 272 285 248 250 143 262 277
61 344 352 12 54 75 83 91 118 143 191 194 218 271 179 141 158 135 232 188 169 172 181 186 193 192 193 185 205 219 236 237 199 226 194 214 169 197 211 227 262 273 270 285 246 280 305 216 276
318 304 316 80 91 73 68 92 117 146 194 213 152 76 138 111 118 180 201 200 171 171 177 189 196 188 189 199 207 225 241 236 220 233 208 164 192 236 210 215 238 256 243 261 262 261 221 249 225
293 287 287 123 117 244 130 105 114 132 112 144 128 115 142 164 197 194 191 202 176 172 181 183 195 193 201 193 208 220 243 233 194 172 169 193 196 215 223 234 209 245 246 248 249 244 274 255 212
261 285 306 300 136 116 177 143 141 122 146 137 141 142 151 165 160 167 176 175 169 167 180 188 193 193 198 202 203 215 240 245 227 230 202 201 209 213 217 227 221 239 240 220 232 207 245 254 289
262 2 286 252 233 202 230 86 152 142 137 182 160 164 161 172 167 152 157 168 169 169 171 174 180 179 193 182 209 214 234 240 220 196 211 208 201 212 213 209 217 219 230 233 231 229 278 207 250
343 335 292 242 237 225 168 260 113 164 157 154 175 167 163 161 160 153 164 157 149 165 177 181 183 181 186 181 220 224 228 244 232 208 209 214 188 206 214 206 215 216 223 211 251 258 241 225 281
305 267 208 199 227 234 105 275 148 148 124 139 154 156 160 159 155 158 151 171 182 181 193 185 188 196 198 207 213 221 231 236 211 220 231 242 188 189 213 216 214 215 224 226 226 234 235 263 271
238 228 221 217 203 143 99 252 68 124 140 141 154 153 160 159 166 170 173 184 193 193 210 201 201 209 209 212 222 230 247 248 251 249 236 225 260 242 189 210 212 217 218 234 232 233 253 236 253
210 235 241 273 213 137 147 250 110 127 138 156 173 159 163 172 177 174 167 174 193 213 226 219 211 223 219 227 232 234 236 239 242 219 275 261 241 209 188 203 216 228 227 223 229 235 232 236 231
176 235 293 278 206 264 107 134 155 155 153 169 179 165 169 172 171 171 179 178 192 218 209 188 201 199 212 216 225 224 226 235 277 256 231 220 224 239 217 219 219 225 225 225 233 233 244 252 236
277 217 213 234 237 259 138 219 101 177 175 171 173 173 167 161 163 159 172 173 177 196 192 175 200 251 237 238 234 240 240 215 233 234 232 230 240 223 234 217 221 226 224 222 222 235 228 244 248
187 221 238 286 279 303 252 111 123 182 176 169 175 166 159 157 148 142 137 135 131 119 112 114 124 119 50 350 340 303 275 265 232 239 250 234 229 228 225 226 234 226 227 225 225 236 249 234 234
295 247 217 231 194 247 306 63 113 175 174 171 165 169 151 140 141 134 124 108 105 99 98 95 96 92 71 49 29 25 18 115 258 265 268 262 254 235 231 233 230 230 226 228 230 234 243 233 242